PulseSat

PulseSat

GALAXY 11 (G-11)

Last updated on Dec. 19, 2018, 12:08 a.m. UTC

1 26038U 99071A   18352.12279370  .00000154  00000-0  00000+0 0  9994
2 26038   0.0599 128.9449 0000481 134.7566 272.1094  1.00272580 69629
UTC
Height (km)
Latitude
Longitude
Inclination
Orbital Period

Next 30 passes for location: Hong Kong

Rise time Rise Azimuth (degrees) Set time Set Azimuth (degrees) Duration Max altitude (degrees)

No matching passes for this satellites

PulseSat

PulseSat is the new satellites software and hardware trackering solution by Pulsely.
Satellite Two Line Element Set source: US Air Force Space Command

Download PulseSat for iOS
© 2017 Pulsely Limited